Change the Weather History Date:

Friday, November 18, 2011

  Actual Average (KLNS) Record (KLNS)
Temperature  
Mean Temperature 37 °F -  
Max Temperature 42 °F 51 °F 68 °F (1979)
Min Temperature 32 °F 31 °F 19 °F (1997)
Degree Days  
Heating Degree Days 28    
Moisture  
Dew Point 22 °F    
Average Humidity 57    
Maximum Humidity 80    
Minimum Humidity 45    
Precipitation  
Precipitation 0.00 in - - ()
Sea Level Pressure  
Sea Level Pressure 30.37 in    
Wind  
Wind Speed 12 mph (WNW)    
Max Wind Speed 20 mph    
Max Gust Speed 25 mph    
Visibility 10 miles    
Events      
Averages and records for this station are not official NWS values.
T = Trace of Precipitation, MM = Missing Value Source: NWS Daily Summary

Daily Weather History Graph

Daily Weather History Graph

Search for Another Location

Airport or City:

Trip Planner

Search our weather history database for the weather conditions in past years. The results will help you decide how hot, cold, wet, or windy it might be!

Date:

Astronomy

Nov. 18, 2011 Rise Set
Actual Time 6:51 AM EST 4:45 PM EST
Civil Twilight 6:22 AM EST 5:14 PM EST
Nautical Twilight 5:49 AM EST 5:47 PM EST
Astronomical Twilight 5:17 AM EST 6:19 PM EST
Moon No Moon Rise 12:30 PM EST (11/18)
Length of Visible Light 10h 51m
Length of Day
9h 53m
Waning Gibbous, 49% of the Moon is Illuminated
Nov 18
Waning Gibbous
Nov 25
New
Dec 2
First Quarter
Dec 10
Full
Dec 17
Last Quarter

Hourly Weather History & Observations

Time (EST) Temp. Windchill Dew Point Humidity Pressure Visibility Wind Dir Wind Speed Gust Speed Precip Events Conditions
12:15 AM 35.6 °F 25.2 °F 26.6 °F 70% 30.14 in 10.0 mi WNW 18.4 mph - N/A   Clear
12:35 AM 35.6 °F 24.8 °F 23.0 °F 60% 30.15 in 10.0 mi WNW 19.6 mph 24.2 mph N/A   Clear
12:55 AM 35.6 °F 25.2 °F 23.0 °F 60% 30.16 in 10.0 mi WNW 18.4 mph 23.0 mph N/A   Clear
1:15 AM 35.6 °F 25.5 °F 21.2 °F 56% 30.17 in 10.0 mi WNW 17.3 mph 24.2 mph N/A   Clear
1:35 AM 35.6 °F 25.5 °F 21.2 °F 56% 30.18 in 10.0 mi WNW 17.3 mph 24.2 mph N/A   Clear
1:55 AM 33.8 °F 24.3 °F 21.2 °F 60% 30.20 in 10.0 mi NW 13.8 mph - N/A   Clear
2:15 AM 33.8 °F 23.9 °F 21.2 °F 60% 30.21 in 10.0 mi NW 15.0 mph 21.9 mph N/A   Clear
2:35 AM 33.8 °F 24.3 °F 21.2 °F 60% 30.22 in 10.0 mi WNW 13.8 mph - N/A   Clear
2:55 AM 33.8 °F 23.2 °F 21.2 °F 60% 30.23 in 10.0 mi WNW 17.3 mph 25.3 mph N/A   Clear
3:15 AM 33.8 °F 23.9 °F 19.4 °F 56% 30.24 in 10.0 mi WNW 15.0 mph 18.4 mph N/A   Clear
4:15 AM 32.0 °F 22.1 °F 21.2 °F 64% 30.26 in 10.0 mi WNW 13.8 mph - N/A   Clear
4:35 AM 32.0 °F 22.5 °F 21.2 °F 64% 30.28 in 10.0 mi WNW 12.7 mph - N/A   Clear
4:55 AM 32.0 °F 22.5 °F 21.2 °F 64% 30.29 in 10.0 mi WNW 12.7 mph - N/A   Clear
5:15 AM 32.0 °F 22.5 °F 21.2 °F 64% 30.30 in 10.0 mi WNW 12.7 mph - N/A   Clear
5:35 AM 32.0 °F 23.0 °F 21.2 °F 64% 30.32 in 10.0 mi WNW 11.5 mph - N/A   Clear
5:55 AM 32.0 °F 23.0 °F 21.2 °F 64% 30.32 in 10.0 mi WNW 11.5 mph - N/A   Clear
6:35 AM 32.0 °F 23.6 °F 21.2 °F 64% 30.35 in 10.0 mi WNW 10.4 mph - N/A   Clear
7:15 AM 32.0 °F 23.6 °F 21.2 °F 64% 30.37 in 10.0 mi WNW 10.4 mph - N/A   Clear
7:35 AM 32.0 °F 25.6 °F 21.2 °F 64% 30.39 in 10.0 mi West 6.9 mph - N/A   Clear
7:55 AM 33.8 °F 23.9 °F 21.2 °F 60% 30.39 in 10.0 mi WNW 15.0 mph - N/A   Clear
8:15 AM 33.8 °F 23.5 °F 21.2 °F 60% 30.40 in 10.0 mi WNW 16.1 mph - N/A   Clear
8:35 AM 35.6 °F 25.2 °F 21.2 °F 56% 30.41 in 10.0 mi WNW 18.4 mph - N/A   Clear
8:55 AM 35.6 °F 25.9 °F 23.0 °F 60% 30.41 in 10.0 mi WNW 16.1 mph - N/A   Clear
9:15 AM 35.6 °F 26.6 °F 23.0 °F 60% 30.42 in 10.0 mi WNW 13.8 mph 20.7 mph N/A   Clear
9:35 AM 37.4 °F 30.3 °F 23.0 °F 56% 30.42 in 10.0 mi WNW 10.4 mph - N/A   Clear
10:15 AM 37.4 °F 28.2 °F 23.0 °F 56% 30.43 in 10.0 mi WNW 16.1 mph 20.7 mph N/A   Clear
10:35 AM 39.2 °F 31.2 °F 23.0 °F 52% 30.44 in 10.0 mi NW 13.8 mph 19.6 mph N/A   Clear
10:55 AM 39.2 °F 30.8 °F 23.0 °F 52% 30.43 in 10.0 mi NW 15.0 mph 20.7 mph N/A   Clear
11:15 AM 39.2 °F 30.5 °F 23.0 °F 52% 30.43 in 10.0 mi WNW 16.1 mph - N/A   Clear
11:35 AM 39.2 °F 30.8 °F 23.0 °F 52% 30.42 in 10.0 mi NW 15.0 mph 19.6 mph N/A   Clear
11:55 AM 41.0 °F 33.9 °F 23.0 °F 49% 30.42 in 10.0 mi NW 12.7 mph 18.4 mph N/A   Clear
12:15 PM 41.0 °F 35.2 °F 23.0 °F 49% 30.41 in 10.0 mi NW 9.2 mph - N/A   Clear
12:35 PM 41.0 °F 34.7 °F 23.0 °F 49% 30.41 in 10.0 mi WNW 10.4 mph - N/A   Clear
12:55 PM 42.8 °F 37.0 °F 24.8 °F 49% 30.41 in 10.0 mi West 10.4 mph - N/A   Clear
1:15 PM 42.8 °F 37.5 °F 23.0 °F 46% 30.40 in 10.0 mi WNW 9.2 mph - N/A   Clear
1:35 PM 42.8 °F 37.0 °F 24.8 °F 49% 30.40 in 10.0 mi NW 10.4 mph 16.1 mph N/A   Clear
1:55 PM 42.8 °F 37.0 °F 23.0 °F 46% 30.40 in 10.0 mi NW 10.4 mph - N/A   Clear
2:15 PM 42.8 °F 37.0 °F 23.0 °F 46% 30.40 in 10.0 mi West 10.4 mph - N/A   Clear
2:35 PM 42.8 °F 37.5 °F 23.0 °F 46% 30.39 in 10.0 mi WNW 9.2 mph - N/A   Clear
2:55 PM 42.8 °F 37.5 °F 23.0 °F 46% 30.39 in 10.0 mi WNW 9.2 mph - N/A   Clear
3:15 PM 42.8 °F 38.0 °F 23.0 °F 46% 30.40 in 10.0 mi West 8.1 mph - N/A   Clear
3:35 PM 41.0 °F 36.4 °F 23.0 °F 49% 30.40 in 10.0 mi West 6.9 mph - N/A   Clear
3:55 PM 41.0 °F 37.1 °F 21.2 °F 45% 30.41 in 10.0 mi West 5.8 mph - N/A   Clear
4:15 PM 39.2 °F 33.6 °F 23.0 °F 52% 30.41 in 10.0 mi WNW 8.1 mph - N/A   Clear
4:35 PM 39.2 °F 35.9 °F 21.2 °F 49% 30.41 in 10.0 mi West 4.6 mph - N/A   Clear
4:55 PM 39.2 °F - 21.2 °F 49% 30.41 in 10.0 mi Calm Calm - N/A   Clear
5:15 PM 39.2 °F - 21.2 °F 49% 30.42 in 10.0 mi Calm Calm - N/A   Clear
5:35 PM 37.4 °F - 21.2 °F 52% 30.42 in 10.0 mi Calm Calm - N/A   Clear
5:55 PM 37.4 °F - 21.2 °F 52% 30.42 in 10.0 mi Calm Calm - N/A   Clear
6:15 PM 37.4 °F - 21.2 °F 52% 30.42 in 10.0 mi Calm Calm - N/A   Clear
6:35 PM 37.4 °F - 21.2 °F 52% 30.42 in 10.0 mi Calm Calm - N/A   Clear
6:55 PM 37.4 °F - 21.2 °F 52% 30.43 in 10.0 mi Calm Calm - N/A   Clear
7:15 PM 37.4 °F - 21.2 °F 52% 30.43 in 10.0 mi Calm Calm - N/A   Clear
7:35 PM 35.6 °F - 21.2 °F 56% 30.43 in 10.0 mi Calm Calm - N/A   Clear
7:55 PM 35.6 °F - 21.2 °F 56% 30.43 in 10.0 mi Calm Calm - N/A   Clear
8:15 PM 35.6 °F - 21.2 °F 56% 30.43 in 10.0 mi Calm Calm - N/A   Clear
8:35 PM 35.6 °F 32.8 °F 21.2 °F 56% 30.43 in 10.0 mi SSW 3.5 mph - N/A   Clear
9:15 PM 33.8 °F - 21.2 °F 60% 30.44 in 10.0 mi Calm Calm - N/A   Clear
9:35 PM 33.8 °F - 21.2 °F 60% 30.44 in 10.0 mi Calm Calm - N/A   Clear
9:55 PM 32.0 °F - 23.0 °F 69% 30.45 in 10.0 mi Calm Calm - N/A   Clear
10:15 PM 33.8 °F - 23.0 °F 65% 30.44 in 10.0 mi Calm Calm - N/A   Clear
10:35 PM 32.0 °F - 23.0 °F 69% 30.43 in 10.0 mi Calm Calm - N/A   Clear
10:55 PM 32.0 °F - 23.0 °F 69% 30.43 in 10.0 mi Calm Calm - N/A   Clear
11:15 PM 32.0 °F - 24.8 °F 75% 30.43 in 10.0 mi Calm Calm - N/A   Clear
11:35 PM 32.0 °F - 26.6 °F 80% 30.43 in 10.0 mi Calm Calm - N/A   Clear
11:55 PM 32.0 °F - 26.6 °F 80% 30.42 in 10.0 mi Calm Calm - N/A   Clear